TIMESTAMP,CO2_1_1_1,H2O_1_1_1,TAU_1_1_1,TAU_SSITC_TEST_1_1_1,H_1_1_1,H_SSITC_TEST_1_1_1,LE_1_1_1,LE_SSITC_TEST_1_1_1,FC_1_1_1,FC_SSITC_TEST_1_1_1,WD_0_0_1,WS_0_0_1,WS_MAX_0_0_1,U_SIGMA_0_0_1,V_SIGMA_0_0_1,W_SIGMA_0_0_1,USTAR_0_0_1,MO_LENGTH_0_0_1,ZL_0_0_1,FETCH_MAX_0_0_1,FETCH_70_0_0_1,FETCH_80_0_0_1,FETCH_90_0_0_1,PA_0_0_1,RH_0_0_1,TA_0_0_1,VPD_0_0_1,T_SONIC_0_0_1,T_SONIC_SIGMA_0_0_1
[yyyymmddHHMMSS],[mmolCO2 mol-1],[mmolH2O mol-1],[kg m-1 s-2],[#],[W m-2],[#],[W m-2],[#],[umolCO2 m-2 s-1],[#],[Decimal degrees],[m s-1],[m s-1],[m s-1],[m s-1],[m s-1],[m s-1],[m],[#],[m],[m],[m],[m],[kPa],[%],[deg C],[hPa],[deg C],[deg C]
20220701003000,404.25167062566771,20.783554110037830,0.71356139314395151,0,-15.683367489135469,1,54.732927577775598,0,2.6257966576231229,1,237.68199670542123,3.8455154469046100,10.000486681209960,1.6859296024864046,1.3887223226241172,1.0306557590579404,0.81435845617240776,2856.4034225684795,6.6517214794943741E-003,103.70900811645947,189.61314312855214,226.91850445239089,284.07504044509182,92.928311328342005,59.819655172413796,25.373793103448293,12.976396148832521,26.375978814866755,0.26410276383253012
20220701010000,407.64996708476662,19.752839877036962,1.4920571337027444,1,-575.91329745467283,1,-1312.9025547517685,1,57.620107949804215,1,275.35653553186461,1.5817376300285635,8.1750126161461658,1.4181712049085187,2.1772317640461383,0.91044542310680765,1.1737750428857192,232.98164361924097,8.1551489228273558E-002,153.43331318803288,280.52503155309950,335.71681567628457,420.27761562013558,92.990262294704863,62.656999999999996,23.759000000000015,10.950226506892179,24.668225277370595,1.2098285596811660
20220701013000,414.01305380401311,17.326958015475633,0.66460696738156799,0,-315.81356961563949,1,315.69921647679803,1,9.4096453306549090,1,341.48082752387950,2.9087861977877596,13.676243790282717,2.3406199847422475,1.6506418755821732,0.81035157126164958,0.77571309394736687,122.69576945252716,0.15485456495182082,120.91411871276567,221.06957258718293,264.56381643018585,331.20250388606428,93.129614580511685,75.172333333333327,18.678666666666686,5.3309484515361580,19.055658148903262,2.0811423689190938
20220701023000,417.76798861011542,17.957575078099250,2.2711795820091143,1,-447.25474115552362,1,-26.703016019421998,1,-7.1050280463643150,1,160.85346138825980,1.0677866870725443,18.854856731368493,2.3897619679769284,1.8277153254879406,0.88248220410686951,1.4280197082702035,540.97669190991883,3.5121661032974413E-002,184.02528363149906,336.45691033230435,402.65298937382624,504.07376215413632,93.232765328818260,89.446666666666673,16.507000000000005,1.9758693798244713,16.676375489709244,2.5581406792677579
20220701030000,414.14760900928849,16.945357999664505,3.7991426310875256,1,408.85340355480452,1,-274.68981256939810,1,-12.467157299916915,1,244.60862934313496,1.1672044217700928,18.247458184966511,2.2207637778451832,2.6535984011274119,0.99903846022909293,1.8517415173940501,-1290.7109725305045,-1.4720569054084613E-002,205.14145181762260,375.06400043296236,448.85581583591670,561.91421825783686,93.289123423163147,75.385333333333335,18.305333333333351,5.1630382140622784,20.519896906691599,2.0175902409363928
20220701033000,417.15989475945963,16.087888019035002,3.1993092457148098E-002,1,-25.280633591809760,0,23.125523287422109,0,3.1024916446971651,0,297.29600615488289,2.3466205130867883,5.6637820376364854,0.91589949426552708,0.39589267959468033,0.26419707502166889,0.16990344886822842,16.123889397724170,1.1783757337532830,271.49131666419697,2531.0000000000000,4656.0000000000000,-9999.,93.307189056857638,71.287333333333336,18.371666666666670,6.0477214515786413,19.164703643798873,0.43027289903285082
20220701040000,421.37544316234641,15.884502767546865,0.23251292849406857,0,-113.44968993639104,0,91.130752377410914,0,8.7087977172061990,0,315.36454037296704,3.4706691216954884,7.7305756085674533,1.0176685572247419,0.91522568833736095,0.56693412858477565,0.45699617993402758,69.941706848300242,0.27165479448778634,105.38016501823461,192.66855093315405,230.57504723245742,288.65259810458423,93.360132535993586,75.632000000000005,17.239333333333320,4.7793173016402646,18.000714479614430,0.56733838746576248
20220701043000,421.14456100636892,15.393787437146505,0.22879664874739855,0,-89.670195062514225,0,93.052287918938219,0,8.7555430208636498,0,326.53641253560590,2.9518870794279630,6.8112625871353440,0.96703172378089342,0.70627253652293720,0.52689983488262382,0.45241793214672149,85.873237687495603,0.22125636009141270,110.84198588225014,202.65450143099443,242.52567953102795,303.61337162877743,93.399345450086813,78.089333333333329,16.248333333333335,4.0352428252967094,16.967497706095287,0.40293802021033087
20220701050000,422.19507886138359,15.242337328106192,7.0504138444015929E-002,0,-27.576324985453784,0,21.747517476843441,0,3.4655991145239180,0,324.24936452795572,2.3440651887675692,6.4544828311259801,0.62549374247070644,0.49511972488520256,0.33027754016009248,0.25082897650190250,47.592915073104166,0.39921908483259372,100.47403217811512,183.69857537060093,219.84027744780664,275.21394016832403,93.422177688039952,80.557000000000002,15.610666666666646,3.4377795701748846,16.345570898042752,0.25315748872827404
20220701053000,420.73729330597769,14.777470052597618,0.11276420894869364,0,-40.170284355787317,0,38.166244168573606,0,5.8096896633973838,0,316.92196025629471,2.8145037359185139,6.1551321213245620,0.76706296384454897,0.69951767292243616,0.43909597531044492,0.31695895214104569,65.931814710230100,0.28817650603892636,96.473881600965640,176.38502433297967,211.08782476277256,264.25690801047961,93.447262222873263,79.847333333333339,15.269999999999982,3.4862237266217018,15.995854955037430,0.32579413624741793
20220701060000,419.90581264460877,14.330471202165731,9.2186242595430790E-002,0,-52.721051488230792,0,20.820140518544019,0,4.1124185904492858,0,315.01107178251402,2.9635139942537090,5.9768530532353825,0.73687894347040117,0.56620607124121136,0.38059118387099700,0.28636614544993322,37.052245210683886,0.51278943804791122,99.729871564598966,182.33801243123872,218.21203110201347,273.17556895813118,93.471074205512153,79.031999999999996,14.956000000000017,3.5547430952672925,15.628981018066497,0.34308053612450623
20220701063000,420.13308115489133,14.105549045922503,0.15236398961114403,0,-54.882227586663426,0,13.990011110653437,0,4.1700699016894642,0,315.53066598832731,3.4038469640685829,6.8066411527514141,0.88806193777343523,0.69231121929403072,0.47110671067049953,0.36778689417681548,75.409750676909738,0.25195680703686174,102.71561407196575,187.79690198843707,224.74492768213295,281.35398025473131,93.488532863932306,80.338333333333338,14.459666666666692,3.2282141011386489,15.133190248277515,0.31764662061060761
20220701070000,419.50935253115347,13.838408496029649,0.32951313679042149,0,-81.965531505674107,0,12.267374274931823,0,2.4874840566279288,1,318.46320237742941,3.7356862827952604,8.2815790093307040,1.1708306681436522,0.95689839278733069,0.68761996100572753,0.54042361128359584,160.19343942649451,0.11860660503964170,103.26747820972908,188.80588564030776,225.95242341540174,282.86562162612762,93.496390801649312,80.993333333333339,14.040333333333308,3.0370654919838991,14.586563323126825,0.34829635515317026
20220701073000,417.96461441261852,13.566278177506677,0.41230237321249497,0,-80.088617406468899,0,16.777169250756117,1,4.9116802548873810,0,329.50313572624322,3.4075717154477823,9.3769358215142411,1.2999887124379892,0.96068308576650552,0.72505387156372969,0.60389241317975606,228.78711376253412,8.3046635308843236E-002,108.17485902994788,197.77814290850529,236.68992381895313,296.30769797322438,93.519005408854170,81.993333333333325,13.549666666666667,2.7869672121305165,14.093658379448812,0.24833534656788256
20220701080000,418.13877369555206,13.144447652210898,0.24646601327481271,0,-56.584134247943069,0,18.526691480786287,0,3.4481887394154218,0,319.74326667299056,2.8899901351321757,7.2426639724135269,1.0064740466851048,0.78980319985772007,0.53070441929822687,0.46643254441342086,149.23027092966754,0.12732001276707947,112.92856574563645,206.46943490177969,247.09118054795405,309.32883713990987,93.548164569500784,81.819999999999993,13.102666666666664,2.7329299191070211,13.590179303302079,0.31011285128413441
20220701083000,420.96669768675946,12.828925698270403,7.6977844117120067E-002,0,-18.952578477083041,0,4.2577849243412400,1,1.5171843273741763,0,300.49108347872692,2.6978472403035836,4.6657561738823787,0.60566625500120452,0.43407189874534241,0.33221007960568927,0.26024821523148667,77.400945918779954,0.24547503618285871,102.99943999217015,188.31582629220514,225.36594753862684,282.13142342216469,93.577193491536462,84.213333333333338,12.297000000000025,2.2510563469833098,12.745870569864906,0.30405296586257541
20220701090000,422.38061622475180,12.775309094259251,0.19124173752342219,0,-38.149929730822791,0,12.415999014824356,1,2.6737687231585792,0,306.44199136014424,3.0794457473463419,6.7342952432371277,0.86062589115121113,0.70776021248421317,0.51201484655993601,0.40982475719172667,150.17428824695330,0.12651966073417009,104.78700043869097,191.58405690160865,229.27718486033808,287.02782842464251,93.592612821397580,86.513333333333335,11.826999999999998,1.8644513070054085,12.262753719753732,0.25126350160303862
20220701093000,422.14858406999065,12.192399555626203,0.17815792820096790,0,-47.356831211930583,0,8.6567654671230567,0,4.0190936453785744,0,306.57691443448988,3.3195407218586639,6.2452877890901162,0.85092364105649676,0.68360649407809726,0.47876061213086418,0.39536406076654845,108.58656137966328,0.17497561170178494,107.43800116906364,196.43093173004769,235.07765612087547,294.28933013387604,93.567965288194458,84.143333333333331,11.536666666666690,2.1504286393509076,11.935879557291628,0.25922314025987242
20220701100000,421.67878569294260,11.776128829311995,0.19101057518394723,0,-47.454558110445824,0,15.003892330958818,1,4.2665695194046265,0,300.45906303389529,3.2793150502567849,6.8321100677119659,0.90288925995325253,0.69387087943945613,0.51370553780580064,0.40907440644689302,120.04126324053189,0.15827890749474099,104.35790426771523,190.79953224786044,228.33830922019388,285.85246753421836,93.588454195746522,82.993333333333339,11.223333333333358,2.2590055253212631,11.561591600206157,0.23957050248083123
20220701103000,421.86471190075065,11.474658015463794,0.19314112134415765,0,-45.823204095023712,0,-12.289575073595207,2,2.4604472897075618,0,311.40684968677596,3.0337066706735816,6.1467572120479224,0.85930905699647764,0.82246299347267671,0.51519625446816175,0.41111507498101707,126.20515312896588,0.15054852776561650,104.53156772252373,191.11704443036851,228.71829020891309,286.32815864191042,93.617064466362848,82.000000000000000,11.018666666666661,2.3586847646173306,11.337637325710716,0.24473016124370181
20220701110000,421.25713715421210,11.001676261884789,0.13388854293775074,0,-33.284164719360689,0,12.181375926290830,0,1.1068508962224597,0,309.47708993104811,3.0750554331041782,5.9120175762913671,0.76124799499780416,0.59632351252745885,0.42365084611197634,0.34223576599469790,100.24023024221106,0.18954465641280141,105.56227780746114,193.00151119375531,230.97351562515999,289.15143324826823,93.637040088392610,78.548000000000002,11.035666666666657,2.8142046366622822,11.150940542599983,0.22065738556580236
20220701113000,419.66277474170352,10.993120966328766,0.22269497558397172,0,-36.215808678774380,0,39.257073662699113,0,0.99059034052684558,0,311.73286815463922,3.1172430503430975,6.0892641584292697,0.93880595230483255,0.73941024660551824,0.50400729836008251,0.44148968906415648,197.80488622191405,9.6054250038516309E-002,112.62683804393488,205.91778043195444,246.43099104209077,308.50235821950571,93.657862490668407,77.415999999999997,11.245999999999981,3.0043592665100141,11.295941958109552,0.17898557056275313
20220701120000,417.22995853945474,11.128637399964422,0.24124351117672996,0,-11.047511524836608,0,46.804997504246408,0,-2.2205033286592344,0,314.02487442080354,2.8055991329862819,6.5120733775587443,0.95274076532173968,0.71346961440547829,0.51421104757697156,0.45988570175270882,732.98936802645494,2.5921249105095145E-002,114.51482220730611,209.36961762426228,250.56195854976289,313.67383934067414,93.665446700303818,75.945666666666668,11.721999999999980,3.3023888270128849,11.724294931199893,0.20920780693614957
20220701123000,414.75462258956935,11.172639280479197,0.21509656501964405,0,4.8403250703692953,1,59.832655237552608,0,-4.0524930468278342,0,311.71367480876398,2.7909424358077799,5.9329924013084518,0.90446124151476137,0.74195345783886291,0.55469601419327053,0.43478947528252815,-1413.8611102722559,-1.3438377972176717E-002,103.04669846017966,188.40222984404184,225.46935052240030,282.26087168760461,93.672294521960254,72.691999999999993,12.447666666666692,3.9326626306506478,12.401318763461234,0.20920405755568539
20220701130000,412.57826427055483,11.294778018081272,0.30305470773059051,0,64.779363164717125,1,100.91001342799562,0,-9.0771311705513504,0,317.05471694794824,2.6307559283345419,6.6024593545784569,1.1655982921891586,0.73892428271293031,0.54782153268801104,0.51689255269982981,-177.49910561954752,-0.10704279288440301,119.52640044830461,218.53238100970799,261.52744611971912,327.40132856616839,93.663749565972225,69.489000000000004,13.300666666666643,4.6462877084886918,13.283280942281124,0.31505709325468356
20220701133000,410.84725421363675,11.065704481158500,0.23542928889815146,0,65.473975688218985,0,105.10639679549440,0,-7.9484096467209762,0,317.89124238189288,2.1784837229231813,5.5776381114386835,0.94733176767067850,0.73954193280154146,0.51067031609011160,0.45619452272596839,-120.72807819690547,-0.15737846807278186,114.40959856109936,209.17723523963562,250.33172597051143,313.38561547184304,93.665205546440987,64.647000000000006,14.096333333333348,5.6695910606413920,14.043314357333713,0.31984972900502695
20220701140000,409.55267682272296,10.477076737731068,0.15085236710497860,1,89.116795068476023,0,112.89466891277264,0,-9.4537100399890353,0,301.35734183512267,1.6106041210675868,4.2588788832970677,0.84115949768781162,0.59551501387157746,0.46518594455157103,0.36552981800525586,-45.623445977226382,-0.41645254085989319,103.25043276233266,188.77472112610050,225.91512745142364,282.81893150492709,93.662181238498263,58.798999999999999,14.716666666666640,6.8779448422607894,14.612354994879865,0.35914995825506513
20220701143000,408.50874909465256,10.078058241134006,0.19176542552352133,1,119.07802836175236,0,151.36598508793324,0,-10.862644469188313,0,317.10069157705868,2.0460568577181046,5.7709079886238142,0.96984528447764096,0.93486359150301723,0.54344513436720288,0.41249355666641352,-49.074538461901362,-0.38716614756857065,100.43014073375480,183.61832781185208,219.74424161549675,275.09371470229843,93.686467856987846,54.327333333333335,15.346333333333348,7.9397748978846154,15.204031969706193,0.41938017208474310
20220701150000,407.81837663670331,10.112086339988993,0.59173415490701931,0,146.97709128468153,0,204.92077323425769,0,-12.236356332674658,0,277.41849876814558,2.3236261530124356,6.7236308704760104,1.5154145540177746,1.1139483020275078,0.68609105229705347,0.72542671058109687,-216.23621480210500,-8.7866872888930359E-002,130.92552661277341,239.37361920317994,286.46908531079777,358.62530115082421,93.672233600825436,52.397333333333336,15.961333333333357,8.6077614305608048,15.802262925047216,0.44146995354631768
20220701153000,406.78971985649116,10.424366335615556,0.40159183193062253,0,157.27394633612676,0,156.17113939203668,0,-13.280299793546499,0,255.46316140253310,2.4111607761582996,6.1148613351956502,1.1682555230897484,0.98792391215183062,0.71558260823150011,0.59837888536163208,-113.40622659177667,-0.16753930159755206,108.51957562197025,198.40839478044032,237.44417434108522,297.25193012431083,93.653707622711437,51.825333333333333,16.607666666666660,9.0775308544710658,16.423016944644075,0.46253104911283166
20220701160000,406.37482542075389,10.213896895886487,0.51989580228440380,0,167.87828392263768,0,190.26873418415425,0,-11.651505733026717,0,237.96797876632206,2.7330010863298231,6.9022330613641207,1.1813351963703580,1.2485272021690657,0.74582427569895304,0.68166522746868885,-157.02590224162404,-0.12099914554710660,116.52056996979184,213.03676423452495,254.95059643993432,319.16789320445179,93.622486757643202,48.763666666666666,17.240999999999985,10.050086734442427,17.021151388512294,0.53527977581787678
20220701163000,405.32544059893092,10.291102387118793,0.45020890118115381,1,245.56811641063979,0,316.20786999293102,0,-16.739526235614548,0,255.08890808713332,2.6603114217151722,6.8786697886858210,1.2033155173137877,1.1610456418877373,0.76223925719872176,0.63543152452639806,-86.942006924338486,-0.21853647818982141,108.25223097997498,197.91960350967264,236.85921602900879,296.51963173126961,93.600808891276046,46.332999999999998,18.168000000000006,11.160274530784742,17.928541803995756,0.57885215703027915
20220701170000,405.18699295854839,10.107105599008879,0.54935229790790641,0,166.64627455434479,0,166.27775063539934,0,-11.937115840528772,0,259.15846257455848,3.2692831716555109,7.7949211629994997,1.5079874242714002,1.2185544931695593,0.87643923465096352,0.70253050396717431,-173.12877009380864,-0.10974490253529197,104.90823971695231,191.80572096955493,229.54246013587689,287.35992159090779,93.595378748263897,44.067666666666668,18.678999999999974,12.009932597937198,18.417812131245910,0.47400938299993378
20220701173000,404.56395699418511,9.9446317152272758,0.52923962803258828,0,147.14343377422472,0,214.93059697649616,0,-12.380232607119929,0,261.30320326498156,3.5044574758524361,9.0618564968998161,1.4561953032808892,1.3186941910475398,0.83812638495179181,0.69020618526153465,-185.90502496431984,-0.10220272423322936,107.19890940305356,195.99379572737359,234.55451597176747,293.63442074526120,93.575040059951249,41.991333333333337,19.189000000000021,12.858740256180425,18.906353692114635,0.54526905002968751
20220701180000,403.96088746124684,10.200135454432072,0.63921444654507797,0,147.73526843146678,0,180.01077423072542,0,-13.505766197599597,0,256.28146224719217,3.9256228423866313,9.2857974246790320,1.5008240376116089,1.2854722620069770,0.94995649261554860,0.75945579507746031,-246.62741359924880,-7.7039286601259929E-002,104.68728283982594,191.40174132758642,229.05899968228081,286.75468647250989,93.544284813802079,41.518333333333331,19.774000000000001,13.443721500100795,19.476449113633919,0.44586739963837968
20220701183000,403.23796684947865,10.732642169273220,0.87801931548708589,0,235.94660099159398,0,274.89239575954713,0,-17.089612311622961,0,264.06353624962600,3.7936352560062798,11.172086190273744,1.7599593928953634,1.4580866604435372,1.0079082740525298,0.89107886560066552,-249.39065214587291,-7.6185694357487677E-002,113.46214930847746,207.44499583240207,248.25867782017070,310.79040518445890,93.509281278649027,42.375999999999998,20.259666666666647,13.650900154255455,20.039205957712284,0.57838238733993774
20220701190000,403.28181751706705,10.912141535812150,1.4166143038317802,0,183.82817924536164,0,279.06870534980885,0,-14.428513328601877,0,261.43753349458308,4.2886118618985023,12.566968838143193,2.3333124456411176,1.8310217824631809,1.1427313859577342,1.1334469638043119,-658.59906558945124,-2.8849114723530397E-002,124.40004514509998,227.44295788470276,272.19113084599906,340.75099644460818,93.468256852864585,41.303333333333335,20.937666666666644,14.498362343591181,20.670109124077726,0.49470345069739341
20220701193000,402.78486148826630,11.247808427104101,0.69699845119554826,0,138.53926514676840,0,166.38935012471788,1,-10.071720936631253,0,258.47748399261144,4.2415925555990297,11.091577411554061,1.8101289385877715,1.4818083862455884,1.0818859202725828,0.79537615513647408,-301.96611867362498,-6.2920966376813395E-002,97.896638204101208,178.98627716845658,214.20086003759405,268.15405876835206,93.455525777777780,42.131000000000000,21.105666666666650,14.442207665670477,20.938425680372461,0.43319522719104797
20220701200000,403.42689554164411,10.852458372367277,1.3498640502083497,0,207.23033943434208,0,262.99373260853338,0,-14.606513371077030,0,270.74516588011932,5.3161541441066795,14.611690229800629,2.1341235999728312,1.8753679185988987,1.3109340700834859,1.1079134558454760,-545.45421341151678,-3.4833354537982988E-002,109.44473876245799,200.09988806690174,239.46845979156612,299.78609529786291,93.426540621787666,39.408999999999999,21.606666666666683,15.592924694644308,21.257556987308249,0.41512879554342919
20220701203000,403.28062427733079,10.872497681015620,0.75805382423757572,0,107.70483733109167,0,184.00305551431006,0,-9.8520475047083309,0,266.65255909867255,4.2917908359666113,12.224216561433026,1.9097784334420767,1.5852496237897040,1.0863908372121001,0.83033627383193431,-441.75397670048989,-4.3010365502339415E-002,100.98787486033771,184.63804367542187,220.96458106512424,276.62143488248500,93.413856439019099,39.436999999999998,21.622999999999990,15.601293748055951,21.421641728719123,0.39925961488365652
20220701210000,403.11087392396996,10.845484763779032,1.1231749138692180,0,75.260000566246177,0,265.19995820721061,0,-12.753583735566480,0,270.18161601581278,4.2754995391044801,11.790179800438642,2.0364958579454906,1.5644579546732476,1.1730349535219908,1.0106241756018730,-1139.8575226151602,-1.6668749929735559E-002,111.14191708027778,203.20287131913830,243.18193823151248,304.43492964729370,93.412238501953127,39.467666666666666,21.569333333333361,15.542296533923878,21.406090547349777,0.30073900032654211
20220701213000,402.33308726700045,11.392799991002853,1.0657670008361351,0,28.371373098921065,0,218.90408077775405,0,-7.1780259639449024,0,269.76819355965512,5.2032779655748946,12.205235074844037,1.9629902308476985,1.6091139887644077,1.1765426211016674,0.98436021497745951,-2794.0751955992082,-6.8001033150166604E-003,108.56554333930144,198.49243842837325,237.54475312261374,297.37784282367215,93.403998595191055,41.826999999999998,21.423666666666691,14.803934869120472,21.336941982040230,0.20420168349167789
20220701220000,400.86253120552794,12.319612648584073,0.70717887265457147,0,47.768971188968465,0,143.16024431641227,0,-7.5660376209483031,0,261.59700551541329,4.1049893757646565,12.020528243042417,1.8845759804686724,1.4845847309675577,1.0096283150901502,0.80262938639586001,-899.62928674330260,-2.1119810437453444E-002,104.21679843171856,190.54154577626034,228.02956530435281,285.46595678847120,93.384809639439112,44.084666666666664,21.839666666666687,14.595975544105936,21.900700766203840,0.36778329694857609
20220701223000,401.20091770224309,12.684109353833939,1.0708970881851476,0,90.328395044776855,0,186.89230242193869,0,-11.070766936571667,0,260.05086687259188,4.4682555895888258,12.317834760920183,1.9836399702639416,1.5820803161365296,1.1614221413593147,0.98820886438633393,-887.91321687500556,-2.1398487643725088E-002,110.03777876326680,201.18415432878754,240.76604958157611,301.41052373734948,93.371360154296866,44.773000000000003,22.061333333333323,14.612529450238826,22.057983946906290,0.23194003892242476
20220701230000,401.98395329827463,12.833959193094547,0.81955769803545919,0,13.815210780098788,0,155.52582603908129,0,-4.7131345596737786,1,273.06623855764400,4.2521066853107712,11.440287470763900,1.9138529314642476,1.4016255237668971,1.0004042195397027,0.86402937736647401,-3880.3106805837265,-4.8965151411901314E-003,111.36207001563450,203.60538109914785,243.66363963575165,305.03796264463313,93.366179698133678,46.288666666666664,21.707333333333338,13.907785520006099,21.837870012919097,0.33168204886885089
20220701233000,402.72388255860022,12.942527507752864,0.39168798001407451,0,3.8841271177148382,1,108.92859790565079,1,-4.4297197530956343,1,310.22687270653978,3.5406403212653954,8.6860903564230654,1.3307492504062830,1.4885727037357781,0.80339441636769382,0.59659551912624775,-4543.9763318281039,-4.1813598074697802E-003,98.686067275957683,180.42960528729918,215.92815516470347,270.31642729919685,93.381333627564530,48.679000000000002,21.025666666666666,12.745272051497214,21.148923259709250,0.20102651745942032